Location: Huntsville
(41.2590°N, 111.7678°W)
Time: 19:40:46
(UTC+00:00)

N. Korean satellite - Pass Details

Date: 04 December 2021
Orbit: 446 x 492 km, 97.3° (Epoch: 18 January)

Event Time Altitude Azimuth Distance (km) Brightness Sun altitude
Rises 12:36:07 0° 14° (NNE) 2,462 10.2 -22.0°
Reaches altitude 10° 12:38:10 10° 16° (NNE) 1,582 9.2 -21.6°
Maximum altitude 12:41:32 71° 101° (E) 476 6.6 -21.0°
Drops below altitude 10° 12:44:53 10° 186° (S) 1,567 9.2 -20.4°
Sets 12:46:54 0° 189° (S) 2,435 10.2 -20.0°
